GW2731 Weather Reports


time (UTC)temp
C
wind
direction
speed
KPH
gust
KPH
rain 1hr
cm
rain 24hr
cm
rain mn
cm
humidity
%
barometer
mb
20260506081402 10 82 8.0 11.3 0.00 0.00 0.00 81 1015.5
20260506080858 10 12 8.0 17.7 0.00 0.00 0.00 80 1015.6
20260506080355 10 29 4.8 12.9 0.00 0.00 0.00 81 1015.5
20260506073339 10 15 6.4 16.1 0.00 0.00 0.00 80 1015.5
20260506072836 10 7 11.3 16.1 0.00 0.00 0.00 80 1015.7
20260506072334 10 17 8.0 16.1 0.00 0.00 0.00 80 1016.0
20260506071831 10 14 6.4 16.1 0.00 0.00 0.00 80 1015.7
20260506071329 10 24 6.4 12.9 0.00 0.00 0.00 80 1016.1
20260506070820 10 6 8.0 14.5 0.00 0.00 0.00 80 1015.9
20260506070317 10 72 8.0 16.1 0.00 0.00 0.00 79 1015.7
20260506062254 10 22 9.7 17.7 0.00 0.00 0.00 78 1015.3
20260506061750 10 51 16.1 29.0 0.00 0.00 0.00 78 1015.0
20260506061247 10 357 17.7 24.1 0.00 0.00 0.00 78 1015.3
20260506060746 10 8 14.5 27.4 0.00 0.00 0.00 78 1015.3
20260506060243 10 13 11.3 16.1 0.00 0.00 0.00 79 1015.3
20260506051215 10 43 11.3 16.1 0.00 0.00 0.00 82 1015.7
20260506050713 10 20 6.4 14.5 0.00 0.00 0.00 82 1015.3
20260506050210 10 348 6.4 14.5 0.00 0.00 0.00 82 1015.5
20260506044701 10 24 6.4 14.5 0.00 0.00 0.00 83 1015.5
20260506044157 10 17 11.3 16.1 0.00 0.00 0.00 83 1015.2
20260506043655 10 22 14.5 20.9 0.00 0.00 0.00 83 1014.7
20260506043153 10 22 8.0 17.7 0.00 0.00 0.00 83 1015.0
20260506042652 10 10 16.1 20.9 0.00 0.00 0.00 83 1015.2
20260506042149 10 25 9.7 17.7 0.00 0.00 0.00 83 1015.3
20260506041652 10 20 12.9 17.7 0.00 0.00 0.00 83 1015.5
20260506041144 10 42 14.5 24.1 0.00 0.00 0.00 83 1015.5
20260506040642 10 34 9.7 17.7 0.00 0.00 0.00 84 1015.1
20260506040138 10 352 12.9 24.1 0.00 0.00 0.00 83 1015.4
20260506035635 10 5 12.9 20.9 0.00 0.00 0.00 83 1015.5
20260506035132 10 16 6.4 14.5 0.00 0.00 0.00 83 1015.2
20260506034629 10 1 12.9 20.9 0.00 0.00 0.00 83 1015.5
20260506034126 10 354 8.0 16.1 0.00 0.00 0.00 83 1015.5
20260506033623 10 335 12.9 16.1 0.00 0.00 0.00 83 1015.4
20260506033120 10 14 11.3 22.5 0.00 0.00 0.00 83 1015.3
20260506032617 10 72 4.8 16.1 0.00 0.00 0.00 83 1015.2
20260506032114 10 330 9.7 14.5 0.00 0.00 0.00 83 1015.5
20260506031611 10 32 14.5 25.7 0.00 0.00 0.00 83 1015.4
20260506031108 10 350 8.0 17.7 0.00 0.00 0.00 83 1015.3
20260506030607 10 343 14.5 17.7 0.00 0.00 0.00 83 1015.2
20260506030103 10 354 9.7 16.1 0.00 0.00 0.00 84 1014.9
20260506025600 10 15 11.3 16.1 0.00 0.00 0.00 84 1014.9
20260506025056 10 23 11.3 17.7 0.00 0.00 0.00 83 1014.7
20260506024554 10 62 9.7 12.9 0.00 0.00 0.00 83 1014.5
20260506024050 10 90 12.9 20.9 0.00 0.00 0.00 83 1014.5
20260506023546 10 8 9.7 16.1 0.00 0.00 0.00 83 1014.3
20260506023044 10 3 8.0 24.1 0.00 0.00 0.00 83 1014.3
20260506022541 10 347 11.3 16.1 0.00 0.00 0.00 83 1014.1
20260506022038 10 30 9.7 20.9 0.00 0.00 0.00 84 1013.9
20260506021536 10 46 9.7 16.1 0.00 0.00 0.00 84 1013.9
20260506021033 10 18 8.0 14.5 0.00 0.00 0.00 84 1013.8
20260506020530 10 318 16.1 24.1 0.00 0.00 0.00 83 1013.6
20260506020028 10 9 17.7 24.1 0.00 0.00 0.00 83 1013.4
20260506015525 10 356 9.7 16.1 0.00 0.00 0.00 83 1013.0
20260506015021 10 14 11.3 25.7 0.00 0.00 0.00 83 1013.2
20260506014519 10 31 22.5 29.0 0.00 0.00 0.00 82 1013.0
20260506014015 10 356 9.7 22.5 0.00 0.00 0.00 82 1013.1
20260506013513 10 359 17.7 27.4 0.00 0.00 0.00 82 1012.7
20260506013009 10 49 9.7 20.9 0.00 0.00 0.00 82 1012.5
20260506012506 10 34 16.1 22.5 0.00 0.00 0.00 82 1012.5
20260506012003 10 357 14.5 22.5 0.00 0.00 0.00 82 1012.7
20260506011500 10 0 8.0 12.9 0.00 0.00 0.00 81 1012.9
20260506010956 10 65 6.4 17.7 0.00 0.00 0.00 82 1012.8
20260506010456 10 354 9.7 24.1 0.00 0.00 0.00 81 1012.8
20260506005951 10 34 12.9 16.1 0.00 0.00 0.00 81 1012.6
20260506005449 10 32 9.7 14.5 0.00 0.00 0.00 81 1012.5
20260506004944 10 13 16.1 35.4 0.00 0.00 0.00 80 1012.3
20260506004443 10 24 12.9 20.9 0.00 0.00 0.00 80 1012.5
20260506003938 10 15 14.5 27.4 0.00 0.00 0.00 80 1012.7
20260506003435 10 33 12.9 20.9 0.00 0.00 0.00 80 1012.6
20260506002931 10 20 11.3 25.7 0.00 0.00 0.00 80 1012.6
20260506002427 10 9 9.7 17.7 0.00 0.00 0.00 80 1012.5
20260506001923 10 3 14.5 27.4 0.00 0.00 0.00 79 1012.1
20260506001420 10 13 6.4 12.9 0.00 0.00 0.00 80 1012.0
20260506000918 10 356 14.5 24.1 0.00 0.00 0.00 79 1012.1
20260506000416 11 1 16.1 25.7 0.00 0.00 0.00 79 1012.1
20260505235912 11 27 8.0 25.7 0.00 0.00 0.00 79 1012.4
20260505235410 11 342 12.9 22.5 0.00 0.00 0.00 78 1012.1
20260505234907 11 23 17.7 24.1 0.00 0.00 0.00 78 1012.2
20260505234404 11 75 16.1 24.1 0.00 0.00 0.00 78 1012.2
20260505233901 11 27 12.9 24.1 0.00 0.00 0.00 77 1012.5
20260505233358 11 12 14.5 24.1 0.00 0.00 0.00 77 1011.9
20260505232855 11 63 12.9 24.1 0.00 0.00 0.00 77 1012.1
20260505232354 11 16 12.9 24.1 0.00 0.00 0.00 76 1011.9
20260505231850 11 18 16.1 25.7 0.00 0.00 0.00 77 1011.8
20260505231347 11 54 6.4 24.1 0.00 0.00 0.00 77 1011.8
20260505230845 11 23 6.4 27.4 0.00 0.00 0.00 77 1011.6
20260505230342 11 6 9.7 33.8 0.00 0.00 0.00 77 1011.5
20260505225839 11 26 6.4 22.5 0.00 0.00 0.00 78 1011.5
20260505225336 11 353 19.3 29.0 0.00 0.00 0.00 77 1011.4
20260505224831 11 355 24.1 30.6 0.00 0.00 0.00 77 1011.3
20260505224330 11 8 9.7 27.4 0.00 0.00 0.00 77 1011.1
20260505223826 11 310 12.9 24.1 0.00 0.00 0.00 77 1011.1
20260505223323 11 11 16.1 35.4 0.00 0.00 0.00 77 1011.2
20260505222819 11 358 11.3 37.0 0.00 0.00 0.00 78 1010.9
20260505222315 11 8 20.9 25.7 0.00 0.00 0.00 78 1010.3
20260505221813 11 35 9.7 25.7 0.00 0.00 0.00 79 1010.7
20260505221309 11 58 9.7 24.1 0.00 0.00 0.00 79 1010.7
20260505220806 12 64 14.5 17.7 0.00 0.00 0.00 79 1010.9
20260505220303 11 19 12.9 22.5 0.00 0.00 0.00 79 1010.7
20260505215802 11 28 14.5 22.5 0.00 0.00 0.00 79 1011.1
20260505215259 11 359 17.7 27.4 0.00 0.00 0.00 80 1010.7
20260505214756 11 337 17.7 37.0 0.00 0.00 0.00 80 1010.7
20260505214254 11 1 20.9 33.8 0.00 0.00 0.00 80 1010.5
20260505213751 11 329 17.7 25.7 0.00 0.00 0.00 80 1010.9
20260505213248 11 37 12.9 27.4 0.00 0.00 0.00 80 1011.0
20260505212743 11 351 22.5 37.0 0.00 0.00 0.00 80 1011.0
20260505212242 12 29 9.7 25.7 0.00 0.00 0.00 81 1010.9
20260505211738 12 19 6.4 22.5 0.00 0.00 0.00 82 1010.6
20260505211236 12 9 11.3 30.6 0.00 0.00 0.00 83 1010.1
20260505210732 12 33 11.3 17.7 0.00 0.00 0.00 84 1010.3
20260505210229 12 50 17.7 27.4 0.00 0.00 0.00 84 1010.3
20260505205726 12 52 14.5 17.7 0.00 0.00 0.00 84 1010.2
20260505205224 12 57 9.7 25.7 0.00 0.00 0.00 85 1010.2
20260505204720 12 9 24.1 33.8 0.00 0.00 0.00 84 1010.5
20260505204218 12 41 16.1 33.8 0.00 0.00 0.00 85 1010.4
20260505203715 12 9 4.8 17.7 0.00 0.00 0.00 85 1010.7
20260505203212 12 350 11.3 22.5 0.00 0.00 0.00 84 1010.5
20260505202708 12 356 12.9 25.7 0.00 0.00 0.00 84 1010.3
20260505202204 12 16 6.4 17.7 0.00 0.00 0.00 84 1010.0
20260505201700 12 3 9.7 20.9 0.00 0.00 0.00 84 1010.0
20260505201159 12 25 12.9 20.9 0.00 0.00 0.00 84 1010.2
20260505200657 12 64 19.3 29.0 0.00 0.00 0.00 84 1010.1
20260505200153 12 336 12.9 30.6 0.00 0.00 0.00 84 1010.2
20260505195649 12 2 12.9 25.7 0.00 0.00 0.00 85 1010.2
20260505195146 12 355 11.3 25.7 0.00 0.00 0.00 85 1010.2
20260505194644 13 76 12.9 22.5 0.00 0.00 0.00 85 1009.9
20260505194139 12 351 16.1 25.7 0.00 0.00 0.00 85 1009.8
20260505193636 12 353 11.3 25.7 0.00 0.00 0.00 86 1010.2
20260505193133 12 5 11.3 14.5 0.00 0.00 0.00 85 1010.0
20260505192632 13 352 6.4 17.7 0.00 0.00 0.00 86 1009.9
20260505192129 13 330 6.4 17.7 0.00 0.00 0.00 86 1009.8
20260505191628 13 346 12.9 25.7 0.00 0.00 0.00 86 1009.7
20260505191125 13 348 9.7 25.7 0.00 0.00 0.00 86 1009.9
20260505190621 13 358 12.9 29.0 0.00 0.00 0.00 86 1009.6
20260505190116 13 331 16.1 22.5 0.00 0.00 0.00 86 1009.3
20260505185613 13 1 17.7 22.5 0.00 0.00 0.00 86 1009.5
20260505185109 13 52 9.7 12.9 0.00 0.00 0.00 86 1009.6
20260505184606 13 19 16.1 22.5 0.00 0.00 0.00 86 1009.5
20260505184102 13 13 9.7 20.9 0.00 0.00 0.00 87 1009.4
20260505183559 13 353 9.7 24.1 0.00 0.00 0.00 87 1009.4
20260505183057 13 7 16.1 29.0 0.00 0.00 0.00 87 1009.2
20260505182553 13 19 12.9 25.7 0.00 0.00 0.00 87 1009.4
20260505182050 13 358 16.1 25.7 0.00 0.00 0.00 87 1009.5
20260505181546 13 353 20.9 33.8 0.00 0.00 0.00 87 1009.5
20260505181044 13 10 20.9 37.0 0.00 0.00 0.00 87 1009.5
20260505180539 13 89 22.5 33.8 0.00 0.00 0.00 87 1009.2
20260505180038 13 334 16.1 24.1 0.00 0.00 0.00 88 1008.8
20260505175537 13 19 20.9 27.4 0.00 0.00 0.00 87 1008.5
20260505175035 13 20 16.1 27.4 0.00 0.00 0.00 88 1008.0
20260505174532 13 7 9.7 20.9 0.00 0.00 0.00 88 1008.7
20260505174028 13 15 11.3 20.9 0.00 0.00 0.00 88 1008.7
20260505173525 13 16 20.9 29.0 0.00 0.00 0.00 88 1008.6
20260505173021 13 15 20.9 25.7 0.00 0.00 0.00 88 1008.6
20260505172520 13 19 11.3 25.7 0.00 0.00 0.00 89 1008.7
20260505172015 13 0 25.7 33.8 0.00 0.00 0.00 89 1008.6
20260505171510 13 9 9.7 22.5 0.00 0.00 0.00 89 1008.5
20260505171008 13 13 17.7 20.9 0.00 0.00 0.00 89 1008.1
20260505170504 14 351 12.9 30.6 0.00 0.00 0.00 89 1008.1
20260505170000 14 3 11.3 20.9 0.00 0.00 0.00 89 1008.0
20260505165456 15 330 22.5 35.4 0.00 0.00 0.00 89 1008.1
20260505164951 15 325 16.1 25.7 0.00 0.00 0.00 89 1007.9
20260505164448 15 7 9.7 22.5 0.00 0.00 0.00 89 1007.9
20260505163946 15 86 14.5 24.1 0.00 0.00 0.00 89 1007.6
20260505163444 15 347 16.1 22.5 0.00 0.00 0.00 89 1007.7
20260505162944 15 14 14.5 24.1 0.00 0.00 0.00 89 1007.8
20260505162439 15 359 16.1 27.4 0.00 0.00 0.00 89 1007.5
20260505161936 16 349 12.9 17.7 0.00 0.00 0.00 89 1007.4
20260505161432 16 353 12.9 25.7 0.00 0.00 0.00 89 1007.5
20260505160930 17 43 14.5 25.7 0.00 0.00 0.00 89 1007.3
20260505160423 17 6 17.7 24.1 0.00 0.00 0.00 90 1007.2
20260505152858 21 136 3.2 6.4 0.00 0.00 0.00 82 1006.6
20260505152356 22 140 3.2 9.7 0.00 0.00 0.00 81 1006.4
20260505151855 21 165 1.6 3.2 0.00 0.00 0.00 81 1006.5
20260505151353 22 151 4.8 11.3 0.00 0.00 0.00 81 1006.2
20260505150849 21 149 3.2 16.1 0.00 0.00 0.00 81 1006.3
20260505150346 22 134 6.4 9.7 0.00 0.00 0.00 79 1006.2
20260505140311 20 106 6.4 17.7 0.00 0.00 0.00 85 1006.0
20260505130229 18 148 6.4 6.4 0.00 0.00 0.00 86 1006.7
20260505124719 18 94 3.2 14.5 0.00 0.00 0.00 87 1006.6
20260505124216 18 126 3.2 14.5 0.00 0.00 0.00 86 1006.5
20260505123711 18 99 6.4 12.9 0.00 0.00 0.00 86 1006.4
20260505123209 18 160 4.8 17.7 0.00 0.00 0.00 86 1006.4
20260505122705 18 110 6.4 12.9 0.00 0.00 0.00 86 1006.4
20260505122202 18 94 9.7 14.5 0.00 0.00 0.00 86 1006.2
20260505121659 18 99 1.6 12.9 0.00 0.00 0.00 86 1006.4
20260505121155 18 109 4.8 11.3 0.00 0.00 0.00 86 1006.1
20260505120651 18 110 8.0 11.3 0.00 0.00 0.00 86 1006.3
20260505120147 18 88 6.4 12.9 0.00 0.00 0.00 85 1006.3
20260505115641 18 75 4.8 14.5 0.00 0.00 0.00 86 1006.2
20260505115139 18 92 4.8 17.7 0.00 0.00 0.00 85 1006.2
20260505114636 18 116 3.2 12.9 0.00 0.00 0.00 85 1006.1
20260505114132 18 56 8.0 12.9 0.00 0.00 0.00 85 1006.0
20260505113629 18 74 4.8 12.9 0.00 0.00 0.00 85 1005.9
20260505113126 18 109 8.0 12.9 0.00 0.00 0.00 85 1006.0
20260505112622 18 74 4.8 12.9 0.00 0.00 0.00 85 1005.8
20260505112120 18 56 6.4 20.9 0.00 0.00 0.00 85 1005.9
20260505111614 18 144 4.8 11.3 0.00 0.00 0.00 85 1005.8
20260505111110 18 113 3.2 11.3 0.00 0.00 0.00 85 1005.6
20260505110607 18 92 6.4 14.5 0.00 0.00 0.00 85 1005.5
20260505110104 18 93 6.4 16.1 0.00 0.00 0.00 85 1005.4
20260505102039 18 90 4.8 9.7 0.00 0.00 0.00 85 1005.2
20260505101537 18 83 6.4 11.3 0.00 0.00 0.00 85 1004.9
20260505101033 18 105 6.4 9.7 0.00 0.00 0.00 85 1005.0
20260505100531 18 66 4.8 11.3 0.00 0.00 0.00 85 1004.9
20260505100027 18 22 6.4 17.7 0.00 0.00 0.00 85 1004.8
20260505095524 18 98 3.2 14.5 0.00 0.00 0.00 85 1004.8
20260505095020 18 92 4.8 9.7 0.00 0.00 0.00 86 1004.8
20260505094517 18 132 3.2 9.7 0.00 0.00 0.00 86 1004.8
20260505094013 18 85 4.8 6.4 0.00 0.00 0.00 86 1004.9
20260505093509 18 73 1.6 6.4 0.00 0.00 0.00 86 1005.0
20260505093007 18 96 3.2 4.8 0.00 0.00 0.00 87 1004.8
20260505092504 18 90 4.8 9.7 0.00 0.00 0.00 87 1004.9
20260505092002 18 60 4.8 9.7 0.00 0.00 0.00 87 1005.0
20260505091459 18 95 1.6 4.8 0.00 0.00 0.00 87 1005.1
20260505090957 18 132 4.8 9.7 0.00 0.00 0.00 87 1005.0
20260505090455 18 89 4.8 9.7 0.00 0.00 0.00 87 1005.0
20260505085952 18 137 3.2 4.8 0.00 0.00 0.00 86 1005.1
20260505085450 18 109 3.2 9.7 0.00 0.00 0.00 86 1005.1
20260505084948 18 104 3.2 6.4 0.00 0.00 0.00 86 1005.3
20260505084446 18 88 4.8 11.3 0.00 0.00 0.00 85 1005.0
20260505083943 18 74 8.0 12.9 0.00 0.00 0.00 85 1005.1
20260505083441 18 79 3.2 6.4 0.00 0.00 0.00 84 1005.1
20260505082937 19 87 8.0 12.9 0.00 0.00 0.00 84 1005.3
20260505082432 19 87 4.8 6.4 0.00 0.00 0.00 83 1005.3
20260505081930 19 129 6.4 11.3 0.00 0.00 0.00 82 1005.4